Regional Weather Roundup
Issued by NWS Jackson, KY

Home | Current Version | Previous Version | Graphics & Text | Print | Product List | Glossary Off
Versions: 1 2 3 4 5 6 7 8 9 10 11 12 13 14 15 16 17 18 19 20 21 22 23 24 25 26 27 28 29 30 31 32 33 34 35 36 37 38 39 40 41 42 43 44 45 46 47 48 49 50

000
ASUS43 KJKL 040810
RWRJKL

EAST KENTUCKY HOURLY WEATHER ROUNDUP
NATIONAL WEATHER SERVICE JACKSON KY
400 AM EDT FRI SEP 04 2015

NOTE: "FAIR" INDICATES FEW OR NO CLOUDS BELOW 12,000 FEET WITH
NO SIGNIFICANT WEATHER AND/OR OBSTRUCTIONS TO VISIBILITY.

* THESE REPORTS ARE NOT UNDER NWS QUALITY CONTROL AND MAY NOT
  REPORT WEATHER SUCH AS PRECIPITATION AND FOG.

KYZ079-080-083-085-087-088-110-112-115-119-120-040900
...EASTERN KENTUCKY...

CITY           SKY/WX    TMP DP  RH WIND       PRES   REMARKS
JACKSON        CLEAR     70  66  87 CALM      30.03R
LONDON         CLEAR     68  63  84 CALM      30.02R HAZE
SOMERSET*      CLEAR     64  64 100 CALM      30.02S FOG
MONTICELLO*    FOG       64  64 100 CALM      30.04R VSB 1/2
MIDDLESBORO*   MOCLDY    65  65 100 CALM      30.04R FOG
HARLAN APT*      N/A     66  66 100 MISG      30.05R
HAZARD APT*    MOSUNNY   66  66 100 CALM      30.03R FOG
BLACK MTN*       N/A     64  61  88 VRB2        N/A
PIKEVILLE APT* CLEAR     68  68 100 CALM      30.03R
BIG SANDY*     SUNNY     68  68  99 CALM      30.02S
MOREHEAD APT*  PTSUNNY   70  68  94 CALM      30.03R FOG
$$

KYZ035-036-041-042-044-050-067-078-099-040900
...CENTRAL KENTUCKY...

CITY           SKY/WX    TMP DP  RH WIND       PRES   REMARKS
MT STERLING*   CLEAR     68  66  94 CALM      30.02R
FLEMING/MASON* CLEAR     70  70 100 CALM      30.02R FOG
DANVILLE*      CLEAR     64  64 100 CALM      30.02S
RICHMOND*      CLEAR     68  64  88 CALM      30.01S
LEXINGTON      CLEAR     70  65  84 CALM      30.01R
FRANKFORT      CLEAR     68  65  90 CALM      29.99R FOG
$$

KYZ091>093-OHZ055-061-077-WVZ005-015-034-035-042-040900
...SOUTHERN OHIO/WEST VIRGINIA...

CITY           SKY/WX    TMP DP  RH WIND       PRES   REMARKS
COVINGTON      CLEAR     70  66  87 CALM      29.99S
COLUMBUS       MOCLDY    70  66  87 E5        29.99S
DAYTON         PTCLDY    74  67  78 W7        30.00R
WILMINGTON     CLEAR     68  66  93 CALM      30.00R FOG
HUNTINGTON     FOG       65  65 100 E3        30.00R VSB 3/4
CHARLESTON     CLEAR     68  66  93 CALM      30.01R FOG
PINEVILLE*     FOG       66  66 100 MISG      30.10S VSB 1/4
BECKLEY        CLEAR     63  61  93 CALM      30.09R FOG
BLUEFIELD      CLEAR     68  62  81 W5        30.11R
$$

VAZ002-007-008-TNZ017-027-036-066-071-040900
...SOUTHWEST VIRGINIA/EAST TENNESSEE...

CITY           SKY/WX    TMP DP  RH WIND       PRES   REMARKS
WISE*          CLEAR     66  66 100 CALM      30.11R
JONESVILLE*    SUNNY     64  63  94 CALM      30.06R
ABINGDON*      CLEAR     67  64  91 CALM      30.07R
BRISTOL        PTCLDY    65  63  93 CALM      30.03R
KNOXVILLE      CLEAR     69  69 100 CALM      29.99R
OAK RIDGE      CLEAR     70  67  90 CALM      30.01R
CROSSVILLE     CLEAR     67  64  90 CALM      30.06R FOG
NASHVILLE      CLEAR     75  68  78 CALM      29.99R
$$

...KEY TO REMARKS...
VSB - VISIBILITY IN MILES
WCI - WIND CHILL INDEX
HX  - HEAT INDEX

$$


USA.gov is the U.S. government's official web portal to all federal, state and local government web resources and services.